Printer-friendly version

IAU Minor Planet Center

Minor Planet Center

MPEC 2007-U50 : 2007 UE6

The following Minor Planet Electronic Circular may be linked-to from your own Web pages, but must not otherwise be redistributed electronically.


Read MPEC 2007-U49 Read MPEC 2007-U51


M.P.E.C. 2007-U50                                Issued 2007 Oct. 22, 14:29 UT

     The Minor Planet Electronic Circulars contain information on unusual
         minor planets and routine data on comets.  They are published
   on behalf of Commission 20 of the International Astronomical Union by the
          Minor Planet Center, Smithsonian Astrophysical Observatory,
                          Cambridge, MA 02138, U.S.A.

             Prepared using the Tamkin Foundation Computer Network

                              MPC@CFA.HARVARD.EDU
          URL http://www.cfa.harvard.edu/iau/mpc.html  ISSN 1523-6714

                                   2007 UE6

Observations:
     K07U06E* C2007 10 20.35397 03 18 08.20 +06 19 19.8          21.3 V EU050G96
     K07U06E  C2007 10 20.35895 03 18 09.90 +06 18 55.0          21.2 V EU050G96
     K07U06E  C2007 10 20.36393 03 18 11.48 +06 18 30.2          20.4 V EU050G96
     K07U06E  C2007 10 20.36889 03 18 13.14 +06 18 05.0          20.9 V EU050G96
     K07U06E  C2007 10 20.41231 03 18 27.53 +06 14 25.1          20.5 V EU050G96
     K07U06E  C2007 10 20.41901 03 18 29.84 +06 13 52.4          20.5 V EU050G96
     K07U06E  C2007 10 20.42571 03 18 32.10 +06 13 18.3          20.7 V EU050G96
     K07U06E  C2007 10 20.43240 03 18 34.34 +06 12 43.9          20.0 V EU050G96
     K07U06E  C2007 10 20.45498 03 18 42.01 +06 10 48.5          20.9 V EU050G96
     K07U06E  C2007 10 20.46142 03 18 44.20 +06 10 14.9          20.5 V EU050G96
     K07U06E  C2007 10 20.46790 03 18 46.36 +06 09 42.1          20.8 V EU050G96
     K07U06E  C2007 10 20.47441 03 18 48.63 +06 09 08.4          19.9 V EU050G96
     K07U06E  C2007 10 21.34185 03 24 30.34 +04 49 36.4          19.9 V EU050G96
     K07U06E  C2007 10 21.34854 03 24 32.94 +04 48 55.2          20.3 V EU050G96
     K07U06E  C2007 10 21.35527 03 24 35.56 +04 48 15.6          20.5 V EU050G96
     K07U06E  C2007 10 21.36194 03 24 38.16 +04 47 36.7          20.7 V EU050G96

Observer details:
G96 Mt. Lemmon Survey.  Observer A. D. Grauer.  Measurers E. C. Beshore,
    A. Boattini, G. J. Garradd, A. R. Gibbs, A. D. Grauer, R. E. Hill,
    R. A. Kowalski, S. M. Larson, R. H. McNaught.  1.5-m reflector + CCD.

Orbital elements:
2007 UE6                                                 Earth MOID = 0.0225 AU
Epoch 2007 Oct. 27.0 TT = JDT 2454400.5                 MPC
M 331.74225              (2000.0)            P               Q
n   0.51575900     Peri.  286.15616     -0.55755824     -0.82945847
a   1.5399437      Node   197.85330     +0.79734162     -0.52383561
e   0.5681545      Incl.    6.28783     +0.23103065     -0.19389406
P   1.91           H   24.0           G   0.15           U   9
Residuals in seconds of arc
071020 G96  0.0   0.1-    071020 G96  0.1+  0.5+    071021 G96  0.2-  0.9+
071020 G96  0.8+  0.0     071020 G96  0.1-  0.2+    071021 G96  0.1-  0.7-
071020 G96  0.3-  0.2+    071020 G96  0.4+  0.1+    071021 G96  0.1+  0.4-
071020 G96  0.0   0.1-    071020 G96  0.4+  0.5-    071021 G96  0.2+  0.3+
071020 G96  1.0-  0.7-    071020 G96  0.4-  0.0
071020 G96  0.0   0.6+    071020 G96  0.2+  0.3-

Ephemeris:
2007 UE6                 a,e,i = 1.54, 0.57, 6                   q = 0.6650
Date    TT    R. A. (2000) Decl.     Delta      r     Elong.  Phase     V
2007 10 17    03 02.05   +09 58.3    0.146    1.132   156.2    20.8    21.1
2007 10 18    03 06.15   +09 04.1    0.136    1.123   156.1    21.1    21.0
2007 10 19    03 10.78   +08 01.5    0.127    1.113   155.8    21.5    20.8
2007 10 20    03 16.07   +06 48.7    0.117    1.104   155.3    22.2    20.6
2007 10 21    03 22.18   +05 23.0    0.108    1.094   154.4    23.2    20.5
2007 10 22    03 29.31   +03 41.5    0.0990   1.085   153.0    24.6    20.3
2007 10 23    03 37.76   +01 39.9    0.0902   1.075   151.2    26.5    20.1
2007 10 24    03 47.91   -00 47.3    0.0816   1.065   148.7    29.0    20.0
2007 10 25    04 00.30   -03 47.1    0.0735   1.056   145.3    32.4    19.8
2007 10 26    04 15.69   -07 28.1    0.0660   1.046   140.9    36.8    19.7
2007 10 27    04 35.12   -11 59.4    0.0591   1.037   135.1    42.6    19.6
2007 10 28    05 00.08   -17 27.7    0.0533   1.027   127.7    50.0    19.6
2007 10 29    05 32.41   -23 49.0    0.0487   1.018   118.5    59.1    19.6
2007 10 30    06 14.02   -30 36.3    0.0459   1.008   107.6    69.9    19.8
2007 10 31    07 05.58   -36 52.5    0.0450   0.998    95.8    81.7    20.1
2007 11 01    08 04.38   -41 29.8    0.0463   0.989    84.0    93.3    20.6
2007 11 02    09 03.74   -43 52.8    0.0495   0.979    73.4   103.8    21.3
2007 11 03    09 56.61   -44 18.9    0.0544   0.970    64.4   112.7    21.9
2007 11 04    10 39.67   -43 32.0    0.0604   0.960    57.1   119.9    22.7
2007 11 05    11 13.26   -42 11.2    0.0674   0.951    51.3   125.5    23.3
2007 11 06    11 39.21   -40 40.1    0.0750   0.942    46.7   130.0    24.0

Timothy B. Spahr             (C) Copyright 2007 MPC           M.P.E.C. 2007-U50

Read MPEC 2007-U49 Read MPEC 2007-U51


Our Web policy. Index to the CBAT/MPC/ICQ pages.


Valid HTML 4.01!